HST 1 20580U 90037B 24351.89811482 .00008518 00000-0 35597-3 0 9994 2 20580 28.4661 197.5255 0001735 239.9448 120.0973 15.21800812704857 ISS (ZARYA) 1 25544U 98067A 24352.52003994 .00015974 00000-0 28035-3 0 9995 2 25544 51.6385 127.0555 0007453 352.0326 97.9089 15.50677450486982 CXO 1 25867U 99040B 24347.67995738 .00000403 00000-0 00000-0 0 9991 2 25867 45.2638 139.9696 8693340 305.0901 0.0820 0.37810292 15235